Location: Chimay
(50.0486°N, 4.3171°E)
Time: 07:50:52
(UTC+00:00)

Cosmos 1763 Rocket - Pass Details

Date: 08 August 2020
Orbit: 733 x 780 km, 74.0° (Epoch: 26 September)

Event Time Altitude Azimuth Distance (km) Brightness Sun altitude
Rises 22:22:00 0° 331° (NNW) 3,274 8.3 -21.5°
Reaches altitude 10° 22:24:30 10° 325° (NW) 2,344 7.1 -21.6°
Maximum altitude 22:29:29 42° 256° (WSW) 1,109 4.3 -21.9°
Enters shadow 22:31:05 33° 215° (SW) 1,293 4.4 -22.0°
